"TOA5","AWS1","CR1000","7964","CR1000.Std.14","CPU:AWS1_114.CR1","64363","TBL110"
"TIMESTAMP","RECORD","Wind_spd_WVc(1)","Wind_spd_WVc(2)","Air_Temp_Avg","Humidity_Avg","SW_upper_Wm2_Avg","Rain_Tot","Press_Avg","Issui_Tot","Depth_cm","SR50A_Raw","Quality","Ground_Temp_Avg(1)","Ground_Temp_Avg(2)","SW_lower_Wm2_Avg","Albedo_Avg","SWC_per(1)","SWC_per(2)","Period(1)","Period(2)"
"TS","RN","","","","","","","","","","","","","","","","","","",""
"","","WVc","WVc","Avg","Avg","Avg","Tot","Avg","Tot","Smp","Smp","Smp","Avg","Avg","Avg","Avg","Smp","Smp","Smp","Smp"
"2017-09-20 00:00:00",306493,0.139,164.5,11.89,87.8,0,0,865.5489,0,1.804,3.098,227,17.13,17.49,0.2387411,0,49.95,57.1,33.28,35.01
"2017-09-20 00:10:00",306494,0.143,187.1,11.58,90,0,0,865.709,0,1.828,3.094,225,17.06,17.49,0.2690574,0,49.95,57.1,33.28,35.01
"2017-09-20 00:20:00",306495,0.332,157,12.05,87,0,0,865.6816,0,1.937,3.096,220,17.01,17.49,0.553273,0,49.95,57.1,33.28,35.01
"2017-09-20 00:30:00",306496,0.293,185.2,11.44,91,0,0,865.4478,0,2.417,3.092,231,17.03,17.49,0,0,49.95,57.04,33.28,34.99
"2017-09-20 00:40:00",306497,0.105,161.5,11.69,89.4,0,0,865.433,0,2.729,3.088,238,17.06,17.49,0.3334796,0,49.95,57.04,33.28,34.99
"2017-09-20 00:50:00",306498,0.071,157.6,11.92,87.3,0,0,865.532,0,4.083,3.071,321,17.01,17.49,0.602537,0,49.95,57.04,33.28,34.99
"2017-09-20 01:00:00",306499,0.032,120.2,12.24,84.6,0,0,865.3846,0,3.698,3.075,321,16.92,17.49,0.6896964,0,49.95,57.04,33.28,34.99
"2017-09-20 01:10:00",306500,0.02,286.8,12.29,83.9,0,0,865.4604,0,3.278,3.077,286,16.93,17.49,0.5608521,0,49.95,57.04,33.28,34.99
"2017-09-20 01:20:00",306501,0.15,135.8,12.44,82.8,0,0,865.3867,0,1.563,3.098,262,16.95,17.49,0.6252743,0,49.9,57.04,33.27,34.99
"2017-09-20 01:30:00",306502,0.103,120.5,11.82,87.3,0,0,865.3994,0,1.287,3.1,248,16.97,17.49,0.02652679,0,49.9,57.04,33.27,34.99
"2017-09-20 01:40:00",306503,0.094,152.7,12.21,84.3,0,0,865.5447,0,1.161,3.101,249,16.93,17.49,0.4168495,0,49.9,57.04,33.27,34.99
"2017-09-20 01:50:00",306504,0.185,136,11.65,89.3,0,0,865.4309,0,1.504,3.1,247,16.89,17.48,0,0,49.95,57.04,33.28,34.99
"2017-09-20 02:00:00",306505,0.156,141.4,11.77,87.6,0,0,865.3235,0,1.126,3.103,245,16.91,17.48,0.189477,0,49.95,56.98,33.28,34.98
"2017-09-20 02:10:00",306506,0.126,149.9,11.81,86.5,0,0,865.1845,0,0.596,3.107,227,16.88,17.46,0.2842156,0,49.95,56.98,33.28,34.98
"2017-09-20 02:20:00",306507,0.306,122.6,11.9,84.9,0,0,865.0856,0,0.338,3.11,223,16.85,17.45,0.2084248,0,49.9,57.04,33.27,34.99
"2017-09-20 02:30:00",306508,0.122,132.4,12,83.4,0,0,865.0034,0,-0.474,3.117,217,16.84,17.45,0.231162,0,49.95,56.98,33.28,34.98
"2017-09-20 02:40:00",306509,0.387,132.4,11.94,83.2,0,0,865.1234,0,0.518,3.108,212,16.81,17.45,0.09473852,0,49.95,57.04,33.28,34.99
"2017-09-20 02:50:00",306510,0.225,106.3,12.06,82.4,0,0,865.332,0,0.445,3.108,219,16.8,17.44,0.2690574,0,49.9,56.98,33.27,34.98
"2017-09-20 03:00:00",306511,0.096,129.3,12.07,81.9,0,0,865.3552,0,1.088,3.101,232,16.77,17.44,0.03789541,0,49.9,56.98,33.27,34.98
"2017-09-20 03:10:00",306512,0.041,165.7,12.2,80,0,0,865.2751,0,0.373,3.108,211,16.75,17.42,0.4395868,0,49.9,56.98,33.27,34.98
"2017-09-20 03:20:00",306513,0.138,148.8,12.04,79.96,0,0,865.1192,0,1.438,3.099,222,16.77,17.42,0.2084248,0,49.95,56.98,33.28,34.98
"2017-09-20 03:30:00",306514,0.093,142.7,12.06,78.38,0,0,865.1045,0,0.788,3.103,211,16.79,17.39,0.231162,0,49.9,56.98,33.27,34.98
"2017-09-20 03:40:00",306515,0.097,135,12.26,76.66,0,0,865.1719,0,0.812,3.103,217,16.78,17.37,0.4547449,0,49.9,56.98,33.27,34.98
"2017-09-20 03:50:00",306516,0.377,133,12.14,79,0,0,865.3699,0,0.152,3.113,212,16.73,17.37,0.2463202,0,49.9,56.98,33.27,34.98
"2017-09-20 04:00:00",306517,0.142,136.2,11.58,82,0,0,865.134,0,1.185,3.101,217,16.72,17.39,0.04168495,0,49.95,56.98,33.28,34.98
"2017-09-20 04:10:00",306518,0.281,164.6,12.1,78.01,0,0,864.9297,0,-0.03,3.111,209,16.68,17.39,0.4547449,0,49.9,56.98,33.27,34.98
"2017-09-20 04:20:00",306519,0.358,123,12.27,76.77,0,0,864.9486,0,-0.054,3.111,218,16.67,17.4,0.4509554,0,49.9,56.93,33.27,34.97
"2017-09-20 04:30:00",306520,0.178,131.9,12.29,77.33,0,0,864.9423,0,-0.848,3.119,211,16.67,17.4,0.1250549,0,49.9,56.93,33.27,34.97
"2017-09-20 04:40:00",306521,0.233,154.9,12.3,77.17,0,0,864.9423,0,-0.523,3.117,231,16.67,17.4,0.1061071,0,49.9,56.93,33.27,34.97
"2017-09-20 04:50:00",306522,0.112,170.7,11.79,81.1,0,0,865.056,0,0.163,3.111,232,16.64,17.4,0.007579082,0,49.9,56.93,33.27,34.97
"2017-09-20 05:00:00",306523,0.151,131.4,12.06,78.22,0,0,865.1129,0,-0.475,3.117,216,16.58,17.4,0.09473852,0,49.9,56.93,33.27,34.97
"2017-09-20 05:10:00",306524,0.264,124.5,12.22,76.95,0.01965142,0,865.155,0,0.18,3.108,225,16.58,17.4,0.41306,0.153,49.9,56.93,33.27,34.97
"2017-09-20 05:20:00",306525,0.232,124.2,12.45,76.03,0.03537255,0,865.1318,0,0.054,3.109,221,16.58,17.38,0.3751645,0.169,49.9,56.93,33.27,34.97
"2017-09-20 05:30:00",306526,0.393,137.5,12.39,77.31,0,0,865.1613,0,0.199,3.109,211,16.58,17.37,0.2046352,0,49.84,56.93,33.26,34.97
"2017-09-20 05:40:00",306527,0.502,127.9,12.11,78.24,0,0,865.0982,0,0.066,3.111,227,16.61,17.36,0.003789541,0,49.9,56.93,33.27,34.97
"2017-09-20 05:50:00",306528,0.244,126,12.32,76.09,1.784349,0,865.0118,0,0.763,3.103,236,16.62,17.31,0.5873788,0.3,49.9,56.93,33.27,34.97
"2017-09-20 06:00:00",306529,0.152,144.8,12.33,77.5,8.465831,0,865.1277,0,0.223,3.109,246,16.61,17.29,1.527185,0.181,49.9,56.98,33.27,34.98
"2017-09-20 06:10:00",306530,0.457,163.2,12.15,80.1,18.75138,0,865.1298,0,-0.474,3.117,253,16.56,17.28,3.027843,0.164,49.9,56.98,33.27,34.98
"2017-09-20 06:20:00",306531,0.365,159.8,12.22,80.5,51.64785,0,864.9612,0,0.306,3.107,244,16.54,17.28,9.398061,0.178,49.9,56.93,33.27,34.97
"2017-09-20 06:30:00",306532,0.53,141.8,12.56,80.4,64.43307,0,864.7907,0,-1.806,3.126,209,16.54,17.28,10.96693,0.17,49.9,56.93,33.27,34.97
"2017-09-20 06:40:00",306533,0.534,135.5,12.99,80.4,74.58105,0,864.6137,0,-2.351,3.128,194,16.54,17.28,14.18425,0.19,49.9,56.93,33.27,34.97
"2017-09-20 06:50:00",306534,0.194,136.5,13.56,78.21,97.41994,0,864.6263,0,-0.977,3.112,222,16.53,17.26,15.85165,0.163,49.84,56.93,33.26,34.97
"2017-09-20 07:00:00",306535,0.195,91.9,14.12,76.69,136.1332,0,864.5948,0,-2.208,3.12,193,16.54,17.3,23.94611,0.175,49.9,56.93,33.27,34.97
"2017-09-20 07:10:00",306536,0.639,120.7,14.7,73.4,119.6339,0,864.5463,0,-2.993,3.126,185,16.54,17.29,23.42694,0.196,49.9,56.93,33.27,34.97
"2017-09-20 07:20:00",306537,0.595,119.4,14.8,67.17,113.6166,0,864.3802,0,-2.613,3.123,181,16.54,17.28,18.50812,0.163,49.9,56.87,33.27,34.95
"2017-09-20 07:30:00",306538,0.388,114,14.73,67.47,159.035,0,864.5246,0,-2.504,3.121,177,16.54,17.28,24.54865,0.154,49.9,56.93,33.27,34.97
"2017-09-20 07:40:00",306539,0.329,109.1,14.82,70.34,160.0412,0,864.4284,0,1.32,3.084,296,16.53,17.28,22.30145,0.14,49.9,56.93,33.27,34.97
"2017-09-20 07:50:00",306540,0.325,122.9,14.9,68.59,160.2964,0,864.4083,0,-2.013,3.116,195,16.53,17.27,23.89303,0.149,49.9,56.93,33.27,34.97
"2017-09-20 08:00:00",306541,0.176,128.7,14.73,68.68,134.6181,0,864.4099,0,2.065,3.077,358,16.53,17.25,19.40595,0.144,49.84,56.93,33.26,34.97
"2017-09-20 08:10:00",306542,0.142,135.7,14.8,65.24,155.1454,0,864.385,0,-1.275,3.111,208,16.5,17.21,22.2399,0.143,49.9,56.93,33.27,34.97
"2017-09-20 08:20:00",306543,0.038,124.6,14.71,67.72,139.1684,0,864.4799,0,-1.029,3.107,217,16.48,17.19,19.65862,0.141,49.84,56.87,33.26,34.95
"2017-09-20 08:30:00",306544,0.364,138,14.57,66.05,125.2224,0,864.5442,0,-1.291,3.111,194,16.48,17.21,17.49082,0.14,49.9,56.93,33.27,34.97
"2017-09-20 08:40:00",306545,0.254,98.5,14.49,68.63,136.1805,0,864.5401,0,-1.497,3.113,197,16.48,17.24,19.85491,0.146,49.9,56.93,33.27,34.97
"2017-09-20 08:50:00",306546,0.359,136.6,14.48,67.19,148.37,0,864.5375,0,1.318,3.086,289,16.48,17.25,21.67035,0.146,49.84,56.93,33.26,34.97
"2017-09-20 09:00:00",306547,0.643,129.5,14.4,67.34,145.5866,0,864.536,0,0.905,3.09,241,16.47,17.25,21.61016,0.148,49.84,56.87,33.26,34.95
"2017-09-20 09:10:00",306548,0.718,137.1,14.4,66.05,149.4351,0,864.4851,0,-0.585,3.105,195,16.48,17.25,22.3909,0.15,49.9,56.87,33.27,34.95
"2017-09-20 09:20:00",306549,0.432,133.9,14.38,66.1,158.9062,0,864.3049,0,0.396,3.095,209,16.47,17.22,24.23565,0.152,49.84,56.87,33.26,34.95
"2017-09-20 09:30:00",306550,0.161,130.3,14.73,65.78,196.775,0,864.425,0,0.105,3.096,202,16.52,17.2,30.04768,0.153,49.84,56.87,33.26,34.95
"2017-09-20 09:40:00",306551,0.376,133.4,14.69,66,143.8474,0,864.3314,0,-0.446,3.103,200,16.52,17.19,20.55966,0.143,49.84,56.87,33.26,34.95
"2017-09-20 09:50:00",306552,0.742,133.4,14.44,66.93,175.4229,0,864.2606,0,0.706,3.092,209,16.5,17.16,26.50466,0.15,49.84,56.87,33.26,34.95
"2017-09-20 10:00:00",306553,0.557,139.3,14.71,64.49,208.0473,0,864.2667,0,0.458,3.093,208,16.48,17.16,32.26076,0.155,49.84,56.87,33.26,34.95
"2017-09-20 10:10:00",306554,0.717,139.5,14.85,64.17,214.4859,0,864.2473,0,-0.254,3.099,195,16.47,17.17,33.21964,0.155,49.84,56.87,33.26,34.95
"2017-09-20 10:20:00",306555,0.606,144.3,14.85,65.6,201.3088,0,864.1629,0,-0.405,3.101,195,16.53,17.16,31.44566,0.156,49.79,56.87,33.24,34.95
"2017-09-20 10:30:00",306556,0.74,138.5,14.93,66.6,308.572,0,863.9288,0,0.176,3.094,203,16.54,17.14,50.08968,0.162,49.84,56.87,33.26,34.95
"2017-09-20 10:40:00",306557,0.687,148.6,15.28,62.8,361.8991,0,863.8007,0,1.228,3.081,212,16.55,17.14,57.60533,0.159,49.84,56.87,33.26,34.95
"2017-09-20 10:50:00",306558,0.773,137.1,16.1,60.98,527.9069,0,863.7912,0,-0.386,3.093,194,16.57,17.13,76.9803,0.147,49.84,56.81,33.26,34.94
"2017-09-20 11:00:00",306559,0.613,135.9,15.87,61.72,316.4011,0,863.6367,0,-0.302,3.095,200,16.61,17.13,48.29472,0.153,49.79,56.81,33.24,34.94
"2017-09-20 11:10:00",306560,0.623,111.1,15.83,63.67,281.0164,0,863.5313,0,-0.594,3.097,205,16.58,17.12,43.29554,0.154,49.79,56.81,33.24,34.94
"2017-09-20 11:20:00",306561,0.58,112.3,15.91,63.19,313.7174,0,863.525,0,0.083,3.09,207,16.55,17.1,48.30944,0.154,49.79,56.81,33.24,34.94
"2017-09-20 11:30:00",306562,0.56,127.3,16,62.78,335.8817,0,863.5523,0,0.907,3.082,207,16.5,17.1,52.1118,0.155,49.79,56.81,33.24,34.94
"2017-09-20 11:40:00",306563,0.462,141.7,16.23,61.63,386.6608,0,863.6744,0,0.615,3.083,218,16.57,17.1,59.68034,0.153,49.79,56.81,33.24,34.94
"2017-09-20 11:50:00",306564,0.686,145.2,16.02,61.64,261.8881,0,863.3944,0,1.455,3.076,216,16.65,17.09,39.25769,0.15,49.79,56.81,33.24,34.94
"2017-09-20 12:00:00",306565,0.49,129.5,16.03,61.04,279.2342,0,863.5039,0,0.964,3.081,230,16.66,17.08,43.03076,0.154,49.73,56.81,33.23,34.94
"2017-09-20 12:10:00",306566,0.171,81.7,16.24,62.52,263.2316,0,863.5039,0,2.469,3.065,306,16.62,17.06,39.73119,0.151,49.73,56.81,33.23,34.94
"2017-09-20 12:20:00",306567,0.414,135,16.15,62.34,238.825,0,863.285,0,1.581,3.075,201,16.7,17.06,35.15498,0.147,49.73,56.75,33.23,34.93
"2017-09-20 12:30:00",306568,0.253,112,16.06,63.4,208.0161,0,863.1965,0,-0.28,3.094,204,16.73,17.03,30.1472,0.145,49.73,56.75,33.23,34.93
"2017-09-20 12:40:00",306569,0.5,95.9,15.86,65.7,192.6186,0,863.1986,0,-0.721,3.099,184,16.75,17.05,28.02198,0.145,49.73,56.75,33.23,34.93
"2017-09-20 12:50:00",306570,0.326,122.1,15.69,67.81,199.2141,0,862.9481,0,0.893,3.084,238,16.74,17.06,29.63562,0.149,49.73,56.75,33.23,34.93
"2017-09-20 13:00:00",306571,0.518,98.5,15.74,69.06,233.1216,0,862.5964,0,1.081,3.081,204,16.75,17.06,35.57571,0.152,49.73,56.75,33.23,34.93
"2017-09-20 13:10:00",306572,0.383,86,15.92,69.02,270.6829,0,862.4091,0,1.415,3.077,237,16.77,17.06,41.91854,0.155,49.73,56.75,33.23,34.93
"2017-09-20 13:20:00",306573,0.33,10.7,16.02,71.61,311.962,0,862.4512,0,3.52,3.057,260,16.84,17.05,48.32973,0.155,49.73,56.75,33.23,34.93
"2017-09-20 13:30:00",306574,0.386,322.5,15.85,72.97,303.2096,0,862.5185,0,1.202,3.08,195,16.78,17.03,46.13588,0.152,49.73,56.75,33.23,34.93
"2017-09-20 13:40:00",306575,0.434,333.1,15.86,73.89,280.7686,0,862.7059,0,1.364,3.078,225,16.84,17.02,42.15338,0.15,49.73,56.75,33.23,34.93
"2017-09-20 13:50:00",306576,0.746,56.97,16.07,70.66,332.6323,0,862.7627,0,0.634,3.083,249,16.87,17.03,50.11654,0.15,49.73,56.75,33.23,34.93
"2017-09-20 14:00:00",306577,0.666,47.64,15.9,70.62,179.1036,0,862.7017,0,1.601,3.078,215,16.89,17.04,25.04883,0.138,49.73,56.75,33.23,34.93
"2017-09-20 14:10:00",306578,0.818,70.51,15.36,71.89,215.1732,0,862.527,0,-0.397,3.097,221,16.89,17.04,32.22733,0.149,49.68,56.75,33.22,34.93
"2017-09-20 14:20:00",306579,0.645,89,15.38,72.63,158.8439,0,862.2975,0,-1.591,3.11,197,16.89,17.05,23.45751,0.147,49.68,56.75,33.22,34.93
"2017-09-20 14:30:00",306580,0.638,67.41,15.27,73.48,182.4137,0,862.1838,0,-1.693,3.111,194,16.94,17.06,27.54506,0.15,49.68,56.7,33.22,34.91
"2017-09-20 14:40:00",306581,0.753,52.24,15.21,74.8,191.9653,0,862.348,0,-0.42,3.099,217,17.02,17.07,29.4929,0.153,49.68,56.7,33.22,34.91
"2017-09-20 14:50:00",306582,0.681,54.88,15.29,74.51,182.8048,0,862.4301,0,-2.635,3.12,195,17.04,17.09,27.78205,0.152,49.68,56.7,33.22,34.91
"2017-09-20 15:00:00",306583,0.538,77.65,15.24,75.78,145.5722,0,862.2301,0,-1.774,3.113,194,17.04,17.11,21.50892,0.147,49.68,56.7,33.22,34.91
"2017-09-20 15:10:00",306584,0.414,111.4,15.3,75.8,174.0925,0,862.2238,0,-1.814,3.112,195,17.07,17.11,26.62,0.152,49.62,56.7,33.2,34.91
"2017-09-20 15:20:00",306585,0.527,86.9,15.43,75.63,176.3204,0,862.2196,0,-1.151,3.106,201,17.08,17.09,26.39643,0.145,49.62,56.7,33.2,34.91
"2017-09-20 15:30:00",306586,0.498,77.76,15.23,76.38,154.9949,0,862.1627,0,-1.233,3.107,203,17.13,17.11,22.89616,0.148,49.62,56.7,33.2,34.91
"2017-09-20 15:40:00",306587,0.559,77.3,15.16,76.31,151.924,0,862.0322,0,-2.294,3.118,187,17.14,17.11,22.65778,0.149,49.68,56.7,33.22,34.91
"2017-09-20 15:50:00",306588,0.566,67.07,15.06,77.32,123.1758,0,861.9963,0,-1.985,3.115,190,17.15,17.13,18.41434,0.149,49.62,56.7,33.2,34.91
"2017-09-20 16:00:00",306589,0.695,84.1,14.96,76.74,94.07817,0,861.9753,0,-2.382,3.12,184,17.17,17.13,13.79205,0.146,49.62,56.7,33.2,34.91
"2017-09-20 16:10:00",306590,0.722,76.43,14.84,77.82,78.61588,0,861.9837,0,2.67,3.071,379,17.18,17.15,11.55671,0.147,49.62,56.7,33.2,34.91
"2017-09-20 16:20:00",306591,0.603,51.88,14.7,78.75,65.14753,0,862.009,0,1.424,3.084,246,17.18,17.16,9.624727,0.147,49.62,56.64,33.2,34.9
"2017-09-20 16:30:00",306592,0.734,52.87,14.61,79.37,43.78828,0,861.9545,0,2.295,3.076,231,17.18,17.17,6.244746,0.141,49.62,56.64,33.2,34.9
"2017-09-20 16:40:00",306593,0.568,59.16,14.49,80.1,19.5913,0,862.1409,0,2.693,3.073,276,17.18,17.17,2.610838,0.132,49.62,56.64,33.2,34.9
"2017-09-20 16:50:00",306594,0.441,61.05,14.34,81.3,12.54113,0,862.4348,0,-36.91,3.46,284,17.18,17.18,1.591557,0.127,49.57,56.64,33.19,34.9
"2017-09-20 17:00:00",306595,0.546,66.5,14.16,83.3,7.404486,0,862.5354,0,3.18,3.071,223,17.19,17.18,1.659782,0.227,49.62,56.64,33.2,34.9
"2017-09-20 17:10:00",306596,0.136,20.21,13.67,88.6,9.629107,0,862.6697,0,2.549,3.079,241,17.2,17.19,2.038754,0.219,49.62,56.64,33.2,34.9
"2017-09-20 17:20:00",306597,0.282,31.51,13.4,91.7,5.68317,0.5,862.7196,0,0.185,3.103,201,17.2,17.19,1.417284,0.279,49.62,56.64,33.2,34.9
"2017-09-20 17:30:00",306598,0.055,19.75,13.3,92.3,0.5148666,0.5,862.8371,0,1.023,3.096,208,17.21,17.19,0.7654867,1.417,49.57,56.64,33.19,34.9
"2017-09-20 17:40:00",306599,0.102,161.3,13.15,96.3,1.214457,1,862.642,0,2.023,3.086,330,17.23,17.19,0.6745383,0.689,49.62,56.64,33.2,34.9
"2017-09-20 17:50:00",306600,0.022,196.9,13.12,100,0.5620306,0,862.8373,0,1.456,3.092,198,17.24,17.19,0.5191671,1.067,49.57,56.64,33.19,34.9
"2017-09-20 18:00:00",306601,0.171,40.43,13.04,100,0.2240262,0,862.8639,0,0.685,3.1,208,17.26,17.19,0.5570625,0.83,49.57,56.64,33.19,34.9
"2017-09-20 18:10:00",306602,0,0,13.1,100,0,0,863.0753,0,-0.134,3.108,200,17.27,17.19,0.4547449,0,49.57,56.64,33.19,34.9
"2017-09-20 18:20:00",306603,0.038,188.9,13.04,100,0,0,863.1096,0,0.323,3.104,199,17.27,17.19,0.4547449,0,49.57,56.64,33.19,34.9
"2017-09-20 18:30:00",306604,0.19,140.3,12.99,100,0,0,862.9793,0,0.426,3.103,200,17.27,17.19,0.4850613,0,49.57,56.64,33.19,34.9
"2017-09-20 18:40:00",306605,0.014,142.2,12.97,100,0,0,862.8529,0,0.426,3.103,199,17.27,17.19,0.4547449,0,49.57,56.58,33.19,34.88
"2017-09-20 18:50:00",306606,0,0,12.94,100,0,0,862.9372,0,0.426,3.103,198,17.27,17.19,0.4888508,0,49.57,56.64,33.19,34.9
"2017-09-20 19:00:00",306607,0.246,26.29,12.93,100,0,0,863.072,0,0.553,3.102,198,17.25,17.19,0.5456939,0,49.57,56.64,33.19,34.9
"2017-09-20 19:10:00",306608,0.393,242.6,12.83,100,0,0,863.2699,0,0.42,3.104,193,17.23,17.2,0.6480115,0,49.62,56.58,33.2,34.88
"2017-09-20 19:20:00",306609,0.451,5.078,12.74,96.1,0.01965142,0,863.4827,0,0.468,3.104,197,17.22,17.22,0.9473852,0.177,49.62,56.64,33.2,34.9
"2017-09-20 19:30:00",306610,1.076,299.2,12.68,90.3,0.3262135,0,863.4679,0,1.588,3.094,203,17.18,17.2,1.337708,1.768,49.57,56.58,33.19,34.88
"2017-09-20 19:40:00",306611,1.307,297.9,12.31,87,0.1847233,0,863.5226,0,1.064,3.101,200,17.19,17.17,1.4855,0.781,49.62,56.58,33.2,34.88
"2017-09-20 19:50:00",306612,1.376,303.4,12.02,82,0.6445665,0,863.7755,0,2.483,3.089,308,17.19,17.19,2.118353,3.171,49.57,56.58,33.19,34.88
"2017-09-20 20:00:00",306613,1.175,6.267,11.65,78.74,0.6131242,0,863.5859,0,1.354,3.101,229,17.17,17.19,2.463202,3.127,49.62,56.64,33.2,34.9
"2017-09-20 20:10:00",306614,1.038,7.5,11.45,80.6,0.5463094,0,863.6301,0,1.817,3.1,262,17.11,17.19,2.216881,2.609,49.62,56.58,33.2,34.88
"2017-09-20 20:20:00",306615,0.99,353.1,11.47,78.85,0.05502397,0,863.7986,0,4.02,3.077,385,17.15,17.19,2.482149,0.779,49.68,56.58,33.22,34.88
"2017-09-20 20:30:00",306616,1.166,5.791,11.44,74.91,0.2593987,0,864.0092,0,1.63,3.099,213,17.15,17.19,2.872472,2.646,49.62,56.64,33.2,34.9
"2017-09-20 20:40:00",306617,0.8,39.3,11.14,77.76,0.1375599,0,864.1145,0,2.075,3.097,221,17.1,17.19,2.277514,1.517,49.62,56.64,33.2,34.9
"2017-09-20 20:50:00",306618,0.528,65.99,10.44,85.6,0,0,864.0303,0,1.636,3.107,229,17.12,17.19,1.15581,0,49.68,56.64,33.22,34.9
"2017-09-20 21:00:00",306619,0.995,37.09,10.02,86.3,0.0471634,0,863.864,0,2.311,3.098,281,17.14,17.2,1.337708,0.579,49.68,56.58,33.22,34.88
"2017-09-20 21:10:00",306620,1.028,28.42,10.35,81.6,0,0,863.9271,0,1.777,3.103,283,17.05,17.2,1.89477,0,49.62,56.58,33.2,34.88
"2017-09-20 21:20:00",306621,0.878,8.58,11.39,73.94,0.7506841,0,863.925,0,2.663,3.091,272,17.01,17.19,3.126371,3.022,49.68,56.64,33.22,34.9
"2017-09-20 21:30:00",306622,0.713,4.418,11.07,78.82,0,0,864.0745,0,3.023,3.087,320,17.03,17.19,2.057721,0,49.68,56.58,33.22,34.88
"2017-09-20 21:40:00",306623,0.797,329,11.44,74.45,0,0,863.9208,0,2.578,3.089,266,17.05,17.19,2.607204,0,49.68,56.58,33.22,34.88
"2017-09-20 21:50:00",306624,0.772,318.3,11.56,73.32,0,0,863.8934,0,3.281,3.084,372,17.06,17.19,2.501097,0,49.68,56.64,33.22,34.9
"2017-09-20 22:00:00",306625,0.669,9.82,11.19,77.05,0,0,864.1039,0,1.895,3.099,291,16.97,17.19,1.959193,0,49.68,56.64,33.22,34.9
"2017-09-20 22:10:00",306626,0.467,21.5,10.98,77.05,0,0,864.1271,0,1.956,3.101,229,16.93,17.19,1.909929,0,49.68,56.64,33.22,34.9
"2017-09-20 22:20:00",306627,0.626,12.95,10.7,79.34,0,0,864.1208,0,-0.793,3.127,229,16.97,17.2,1.777304,0,49.73,56.58,33.23,34.88
"2017-09-20 22:30:00",306628,0.28,0.434,10.63,79.83,0,0,864.0956,0,3.018,3.091,361,16.98,17.21,1.731862,0,49.68,56.64,33.22,34.9
"2017-09-20 22:40:00",306629,0.648,6.075,10.69,77.95,0,0,863.9039,0,-0.801,3.128,213,16.96,17.21,1.90621,0,49.68,56.64,33.22,34.9
"2017-09-20 22:50:00",306630,0.503,44.05,10.41,79.42,0,0,864.0598,0,1.509,3.106,231,16.92,17.2,1.648536,0,49.73,56.64,33.23,34.9
"2017-09-20 23:00:00",306631,0.637,357.7,10.66,75.34,0,0,864.0914,0,2.771,3.094,246,16.89,17.22,2.255001,0,49.73,56.64,33.23,34.9
"2017-09-20 23:10:00",306632,0.786,44.7,10.56,75.14,0,0,864.1039,0,2.896,3.092,329,16.9,17.24,2.262702,0,49.73,56.7,33.23,34.91
"2017-09-20 23:20:00",306633,0.597,21.86,10.67,73.08,0.06682634,0,864.1124,0,2.368,3.096,262,16.9,17.24,2.399213,0.803,49.73,56.64,33.23,34.9
"2017-09-20 23:30:00",306634,0.608,40.01,10.85,71.61,1.234315,0,863.9861,0,1.96,3.1,267,16.85,17.25,2.622801,2.506,49.68,56.64,33.22,34.9
"2017-09-20 23:40:00",306635,0.497,30.56,10.64,72.82,0.1533064,0,863.9692,0,2.039,3.099,251,16.82,17.24,2.114928,0.964,49.68,56.58,33.22,34.88
"2017-09-20 23:50:00",306636,0.356,8.56,10.79,71.9,1.080974,0,864.0366,0,2.304,3.096,267,16.83,17.24,2.205813,2.086,49.68,56.64,33.22,34.9
